Date_Time,Julian_Date,Latitude,Longitude,Instrument_Depth,U,V,Speed,Direction
(yyyy-mm-dd hh:mn:ss UTC),(JD),(+ deg. North),(+ deg. East),(m),(cm/s),(cm/s),(cm/s),(deg True)
1981-06-24 14:30:00 UTC,2444780.104167,29.6650,-93.4789,0037,3.00,0.00,3.0000,90.0000
1981-06-24 15:00:00 UTC,2444780.125000,29.6650,-93.4789,0037,1.15,1.64,2.0000,35.0000
1981-06-24 15:30:00 UTC,2444780.145833,29.6650,-93.4789,0037,3.28,3.77,5.0000,41.0000
1981-06-24 16:00:00 UTC,2444780.166667,29.6650,-93.4789,0037,4.95,4.95,7.0000,45.0000
1981-06-24 16:30:00 UTC,2444780.187500,29.6650,-93.4789,0037,6.58,6.14,9.0000,47.0000
1981-06-24 17:00:00 UTC,2444780.208333,29.6650,-93.4789,0037,9.43,5.67,11.0000,59.0000
1981-06-24 17:30:00 UTC,2444780.229167,29.6650,-93.4789,0037,11.88,5.29,13.0000,66.0000
1981-06-24 18:00:00 UTC,2444780.250000,29.6650,-93.4789,0037,10.69,5.45,12.0000,63.0000
1981-06-24 18:30:00 UTC,2444780.270833,29.6650,-93.4789,0037,7.55,6.56,10.0000,49.0000
1981-06-24 19:00:00 UTC,2444780.291667,29.6650,-93.4789,0037,5.29,7.28,9.0000,36.0000
1981-06-24 19:30:00 UTC,2444780.312500,29.6650,-93.4789,0037,5.74,8.19,10.0000,35.0000
1981-06-24 20:00:00 UTC,2444780.333333,29.6650,-93.4789,0037,6.69,7.43,10.0000,42.0000
1981-06-24 20:30:00 UTC,2444780.354167,29.6650,-93.4789,0037,7.99,6.02,10.0000,53.0000
1981-06-24 21:00:00 UTC,2444780.375000,29.6650,-93.4789,0037,9.80,4.99,11.0000,63.0000
1981-06-24 21:30:00 UTC,2444780.395833,29.6650,-93.4789,0037,10.27,3.94,11.0000,69.0000
1981-06-24 22:00:00 UTC,2444780.416667,29.6650,-93.4789,0037,9.61,2.76,10.0000,74.0000
1981-06-24 22:30:00 UTC,2444780.437500,29.6650,-93.4789,0037,9.82,1.91,10.0000,79.0000
1981-06-24 23:00:00 UTC,2444780.458333,29.6650,-93.4789,0037,9.99,0.52,10.0000,87.0000
1981-06-24 23:30:00 UTC,2444780.479167,29.6650,-93.4789,0037,10.80,-2.10,11.0000,101.0000
1981-06-25 00:00:00 UTC,2444780.500000,29.6650,-93.4789,0037,10.88,-5.07,12.0000,115.0000
1981-06-25 00:30:00 UTC,2444780.520833,29.6650,-93.4789,0037,9.23,-5.99,11.0000,123.0000
1981-06-25 01:00:00 UTC,2444780.541667,29.6650,-93.4789,0037,7.07,-7.07,10.0000,135.0000
1981-06-25 01:30:00 UTC,2444780.562500,29.6650,-93.4789,0037,2.93,-8.51,9.0000,161.0000
1981-06-25 02:00:00 UTC,2444780.583333,29.6650,-93.4789,0037,-2.29,-10.76,11.0000,192.0000
1981-06-25 02:30:00 UTC,2444780.604167,29.6650,-93.4789,0037,-7.62,-11.74,14.0000,213.0000
1981-06-25 03:00:00 UTC,2444780.625000,29.6650,-93.4789,0037,-11.81,-12.23,17.0000,224.0000
1981-06-25 03:30:00 UTC,2444780.645833,29.6650,-93.4789,0037,-13.02,-10.93,17.0000,230.0000
1981-06-25 04:00:00 UTC,2444780.666667,29.6650,-93.4789,0037,-11.66,-9.44,15.0000,231.0000
1981-06-25 04:30:00 UTC,2444780.687500,29.6650,-93.4789,0037,-10.79,-10.42,15.0000,226.0000
1981-06-25 05:00:00 UTC,2444780.708333,29.6650,-93.4789,0037,-9.18,-10.57,14.0000,221.0000
1981-06-25 05:30:00 UTC,2444780.729167,29.6650,-93.4789,0037,-9.03,-9.35,13.0000,224.0000
1981-06-25 06:00:00 UTC,2444780.750000,29.6650,-93.4789,0037,-9.66,-8.70,13.0000,228.0000
1981-06-25 06:30:00 UTC,2444780.770833,29.6650,-93.4789,0037,-8.63,-8.34,12.0000,226.0000
1981-06-25 07:00:00 UTC,2444780.791667,29.6650,-93.4789,0037,-6.56,-7.55,10.0000,221.0000
1981-06-25 07:30:00 UTC,2444780.812500,29.6650,-93.4789,0037,-5.16,-7.37,9.0000,215.0000
1981-06-25 08:00:00 UTC,2444780.833333,29.6650,-93.4789,0037,-5.03,-7.46,9.0000,214.0000
1981-06-25 08:30:00 UTC,2444780.854167,29.6650,-93.4789,0037,-4.86,-5.04,7.0000,224.0000
1981-06-25 09:00:00 UTC,2444780.875000,29.6650,-93.4789,0037,-3.28,-2.29,4.0000,235.0000
1981-06-25 09:30:00 UTC,2444780.895833,29.6650,-93.4789,0037,-1.46,-1.36,2.0000,227.0000
1981-06-25 10:00:00 UTC,2444780.916667,29.6650,-93.4789,0037,-0.66,-0.75,1.0000,221.0000
1981-06-25 10:30:00 UTC,2444780.937500,29.6650,-93.4789,0037,0.07,1.00,1.0000,4.0000
1981-06-25 11:00:00 UTC,2444780.958333,29.6650,-93.4789,0037,0.09,1.00,1.0000,5.0000
1981-06-25 11:30:00 UTC,2444780.979167,29.6650,-93.4789,0037,-0.44,0.90,1.0000,334.0000
1981-06-25 12:00:00 UTC,2444781.000000,29.6650,-93.4789,0037,-2.08,2.16,3.0000,316.0000
1981-06-25 12:30:00 UTC,2444781.020833,29.6650,-93.4789,0037,-2.52,3.11,4.0000,321.0000
1981-06-25 13:00:00 UTC,2444781.041667,29.6650,-93.4789,0037,-2.87,4.10,5.0000,325.0000
1981-06-25 13:30:00 UTC,2444781.062500,29.6650,-93.4789,0037,-2.35,3.24,4.0000,324.0000
1981-06-25 14:00:00 UTC,2444781.083333,29.6650,-93.4789,0037,-1.68,2.49,3.0000,326.0000
1981-06-25 14:30:00 UTC,2444781.104167,29.6650,-93.4789,0037,-0.34,0.94,1.0000,340.0000
1981-06-25 15:00:00 UTC,2444781.125000,29.6650,-93.4789,0037,-0.00,0.00,0.0000,314.0000
1981-06-25 15:30:00 UTC,2444781.145833,29.6650,-93.4789,0037,-0.79,0.62,1.0000,308.0000
1981-06-25 16:00:00 UTC,2444781.166667,29.6650,-93.4789,0037,-0.79,0.62,1.0000,308.0000
1981-06-25 16:30:00 UTC,2444781.187500,29.6650,-93.4789,0037,0.56,-0.83,1.0000,146.0000
1981-06-25 17:00:00 UTC,2444781.208333,29.6650,-93.4789,0037,3.89,-3.15,5.0000,129.0000
1981-06-25 17:30:00 UTC,2444781.229167,29.6650,-93.4789,0037,6.47,-4.70,8.0000,126.0000
1981-06-25 18:00:00 UTC,2444781.250000,29.6650,-93.4789,0037,8.17,-7.36,11.0000,132.0000
1981-06-25 18:30:00 UTC,2444781.270833,29.6650,-93.4789,0037,7.71,-9.19,12.0000,140.0000
1981-06-25 19:00:00 UTC,2444781.291667,29.6650,-93.4789,0037,6.36,-10.18,12.0000,148.0000
1981-06-25 19:30:00 UTC,2444781.312500,29.6650,-93.4789,0037,5.29,-11.88,13.0000,156.0000
1981-06-25 20:00:00 UTC,2444781.333333,29.6650,-93.4789,0037,4.45,-12.22,13.0000,160.0000
1981-06-25 20:30:00 UTC,2444781.354167,29.6650,-93.4789,0037,4.30,-11.20,12.0000,159.0000
1981-06-25 21:00:00 UTC,2444781.375000,29.6650,-93.4789,0037,4.30,-10.13,11.0000,157.0000
1981-06-25 21:30:00 UTC,2444781.395833,29.6650,-93.4789,0037,2.29,-10.76,11.0000,168.0000
1981-06-25 22:00:00 UTC,2444781.416667,29.6650,-93.4789,0037,-0.21,-12.00,12.0000,181.0000
1981-06-25 22:30:00 UTC,2444781.437500,29.6650,-93.4789,0037,-1.15,-10.94,11.0000,186.0000
1981-06-25 23:00:00 UTC,2444781.458333,29.6650,-93.4789,0037,-1.22,-9.93,10.0000,187.0000
1981-06-25 23:30:00 UTC,2444781.479167,29.6650,-93.4789,0037,-2.08,-9.78,10.0000,192.0000
1981-06-26 00:00:00 UTC,2444781.500000,29.6650,-93.4789,0037,-3.91,-9.21,10.0000,203.0000
1981-06-26 00:30:00 UTC,2444781.520833,29.6650,-93.4789,0037,-5.74,-8.19,10.0000,215.0000
1981-06-26 01:00:00 UTC,2444781.541667,29.6650,-93.4789,0037,-7.31,-6.82,10.0000,227.0000
1981-06-26 01:30:00 UTC,2444781.562500,29.6650,-93.4789,0037,-9.53,-5.50,11.0000,240.0000
1981-06-26 02:00:00 UTC,2444781.583333,29.6650,-93.4789,0037,-11.69,-2.70,12.0000,257.0000
1981-06-26 02:30:00 UTC,2444781.604167,29.6650,-93.4789,0037,-12.98,0.68,13.0000,273.0000
1981-06-26 03:00:00 UTC,2444781.625000,29.6650,-93.4789,0037,-12.67,2.92,13.0000,283.0000
1981-06-26 03:30:00 UTC,2444781.645833,29.6650,-93.4789,0037,-12.50,3.58,13.0000,286.0000
1981-06-26 04:00:00 UTC,2444781.666667,29.6650,-93.4789,0037,-11.59,3.11,12.0000,285.0000
1981-06-26 04:30:00 UTC,2444781.687500,29.6650,-93.4789,0037,-11.48,3.51,12.0000,287.0000
1981-06-26 05:00:00 UTC,2444781.708333,29.6650,-93.4789,0037,-10.46,3.40,11.0000,288.0000
1981-06-26 05:30:00 UTC,2444781.729167,29.6650,-93.4789,0037,-10.40,3.58,11.0000,289.0000
1981-06-26 06:00:00 UTC,2444781.750000,29.6650,-93.4789,0037,-9.89,4.82,11.0000,296.0000
1981-06-26 06:30:00 UTC,2444781.770833,29.6650,-93.4789,0037,-8.79,6.62,11.0000,307.0000
1981-06-26 07:00:00 UTC,2444781.791667,29.6650,-93.4789,0037,-6.56,7.55,10.0000,319.0000
1981-06-26 07:30:00 UTC,2444781.812500,29.6650,-93.4789,0037,-4.69,8.83,10.0000,332.0000
1981-06-26 08:00:00 UTC,2444781.833333,29.6650,-93.4789,0037,-2.25,9.74,10.0000,347.0000
1981-06-26 08:30:00 UTC,2444781.854167,29.6650,-93.4789,0037,-0.21,12.00,12.0000,359.0000
1981-06-26 09:00:00 UTC,2444781.875000,29.6650,-93.4789,0037,1.46,11.91,12.0000,7.0000
1981-06-26 09:30:00 UTC,2444781.895833,29.6650,-93.4789,0037,1.67,11.88,12.0000,8.0000
1981-06-26 10:00:00 UTC,2444781.916667,29.6650,-93.4789,0037,1.13,12.95,13.0000,5.0000
1981-06-26 10:30:00 UTC,2444781.937500,29.6650,-93.4789,0037,0.73,13.98,14.0000,3.0000
1981-06-26 11:00:00 UTC,2444781.958333,29.6650,-93.4789,0037,1.81,12.87,13.0000,8.0000
1981-06-26 11:30:00 UTC,2444781.979167,29.6650,-93.4789,0037,4.47,10.05,11.0000,24.0000
1981-06-26 12:00:00 UTC,2444782.000000,29.6650,-93.4789,0037,5.29,7.28,9.0000,36.0000
1981-06-26 12:30:00 UTC,2444782.020833,29.6650,-93.4789,0037,5.29,7.28,9.0000,36.0000
1981-06-26 13:00:00 UTC,2444782.041667,29.6650,-93.4789,0037,6.36,6.36,9.0000,45.0000
1981-06-26 13:30:00 UTC,2444782.062500,29.6650,-93.4789,0037,7.00,3.88,8.0000,61.0000
1981-06-26 14:00:00 UTC,2444782.083333,29.6650,-93.4789,0037,8.40,3.23,9.0000,69.0000
1981-06-26 14:30:00 UTC,2444782.104167,29.6650,-93.4789,0037,8.65,2.48,9.0000,74.0000
1981-06-26 15:00:00 UTC,2444782.125000,29.6650,-93.4789,0037,8.95,0.94,9.0000,84.0000
1981-06-26 15:30:00 UTC,2444782.145833,29.6650,-93.4789,0037,9.98,-0.70,10.0000,94.0000
1981-06-26 16:00:00 UTC,2444782.166667,29.6650,-93.4789,0037,9.78,-2.08,10.0000,102.0000
1981-06-26 16:30:00 UTC,2444782.187500,29.6650,-93.4789,0037,10.88,-5.07,12.0000,115.0000
1981-06-26 17:00:00 UTC,2444782.208333,29.6650,-93.4789,0037,12.44,-8.39,15.0000,124.0000
1981-06-26 17:30:00 UTC,2444782.229167,29.6650,-93.4789,0037,12.26,-10.28,16.0000,130.0000
1981-06-26 18:00:00 UTC,2444782.250000,29.6650,-93.4789,0037,10.91,-11.70,16.0000,137.0000
1981-06-26 18:30:00 UTC,2444782.270833,29.6650,-93.4789,0037,8.71,-13.42,16.0000,147.0000
1981-06-26 19:00:00 UTC,2444782.291667,29.6650,-93.4789,0037,5.81,-15.97,17.0000,160.0000
1981-06-26 19:30:00 UTC,2444782.312500,29.6650,-93.4789,0037,2.07,-16.87,17.0000,173.0000
1981-06-26 20:00:00 UTC,2444782.333333,29.6650,-93.4789,0037,-1.12,-15.96,16.0000,184.0000
1981-06-26 20:30:00 UTC,2444782.354167,29.6650,-93.4789,0037,-4.40,-16.42,17.0000,195.0000
1981-06-26 21:00:00 UTC,2444782.375000,29.6650,-93.4789,0037,-5.56,-17.12,18.0000,198.0000
1981-06-26 21:30:00 UTC,2444782.395833,29.6650,-93.4789,0037,-3.60,-15.59,16.0000,193.0000
1981-06-26 22:00:00 UTC,2444782.416667,29.6650,-93.4789,0037,-3.63,-14.55,15.0000,194.0000
1981-06-26 22:30:00 UTC,2444782.437500,29.6650,-93.4789,0037,-4.56,-13.24,14.0000,199.0000
1981-06-26 23:00:00 UTC,2444782.458333,29.6650,-93.4789,0037,-5.38,-14.00,15.0000,201.0000
1981-06-26 23:30:00 UTC,2444782.479167,29.6650,-93.4789,0037,-6.10,-13.70,15.0000,204.0000
1981-06-27 00:00:00 UTC,2444782.500000,29.6650,-93.4789,0037,-8.17,-12.58,15.0000,213.0000
1981-06-27 00:30:00 UTC,2444782.520833,29.6650,-93.4789,0037,-10.07,-9.73,14.0000,226.0000
1981-06-27 01:00:00 UTC,2444782.541667,29.6650,-93.4789,0037,-12.00,-7.21,14.0000,239.0000
1981-06-27 01:30:00 UTC,2444782.562500,29.6650,-93.4789,0037,-15.04,-5.47,16.0000,250.0000
1981-06-27 02:00:00 UTC,2444782.583333,29.6650,-93.4789,0037,-15.65,-3.33,16.0000,258.0000
1981-06-27 02:30:00 UTC,2444782.604167,29.6650,-93.4789,0037,-15.98,-0.84,16.0000,267.0000
1981-06-27 03:00:00 UTC,2444782.625000,29.6650,-93.4789,0037,-14.82,2.35,15.0000,279.0000
1981-06-27 03:30:00 UTC,2444782.645833,29.6650,-93.4789,0037,-15.22,4.94,16.0000,288.0000
1981-06-27 04:00:00 UTC,2444782.666667,29.6650,-93.4789,0037,-14.50,6.76,16.0000,295.0000
1981-06-27 04:30:00 UTC,2444782.687500,29.6650,-93.4789,0037,-13.26,8.95,16.0000,304.0000
1981-06-27 05:00:00 UTC,2444782.708333,29.6650,-93.4789,0037,-11.15,10.04,15.0000,312.0000
1981-06-27 05:30:00 UTC,2444782.729167,29.6650,-93.4789,0037,-10.61,10.61,15.0000,315.0000
1981-06-27 06:00:00 UTC,2444782.750000,29.6650,-93.4789,0037,-10.79,10.42,15.0000,314.0000
1981-06-27 06:30:00 UTC,2444782.770833,29.6650,-93.4789,0037,-8.53,9.81,13.0000,319.0000
1981-06-27 07:00:00 UTC,2444782.791667,29.6650,-93.4789,0037,-5.16,9.71,11.0000,332.0000
1981-06-27 07:30:00 UTC,2444782.812500,29.6650,-93.4789,0037,-3.58,9.34,10.0000,339.0000
1981-06-27 08:00:00 UTC,2444782.833333,29.6650,-93.4789,0037,-3.91,9.21,10.0000,337.0000
1981-06-27 08:30:00 UTC,2444782.854167,29.6650,-93.4789,0037,-4.82,9.89,11.0000,334.0000
1981-06-27 09:00:00 UTC,2444782.875000,29.6650,-93.4789,0037,-3.94,10.27,11.0000,339.0000
1981-06-27 09:30:00 UTC,2444782.895833,29.6650,-93.4789,0037,-0.35,9.99,10.0000,358.0000
1981-06-27 10:00:00 UTC,2444782.916667,29.6650,-93.4789,0037,3.26,9.46,10.0000,19.0000
1981-06-27 10:30:00 UTC,2444782.937500,29.6650,-93.4789,0037,6.02,7.99,10.0000,37.0000
1981-06-27 11:00:00 UTC,2444782.958333,29.6650,-93.4789,0037,6.93,4.00,8.0000,60.0000
1981-06-27 11:30:00 UTC,2444782.979167,29.6650,-93.4789,0037,6.00,0.21,6.0000,88.0000
1981-06-27 12:00:00 UTC,2444783.000000,29.6650,-93.4789,0037,6.00,-0.10,6.0000,91.0000
1981-06-27 12:30:00 UTC,2444783.020833,29.6650,-93.4789,0037,7.97,0.70,8.0000,85.0000
1981-06-27 13:00:00 UTC,2444783.041667,29.6650,-93.4789,0037,10.00,0.00,10.0000,90.0000
1981-06-27 13:30:00 UTC,2444783.062500,29.6650,-93.4789,0037,10.89,-1.53,11.0000,98.0000
1981-06-27 14:00:00 UTC,2444783.083333,29.6650,-93.4789,0037,10.67,-2.66,11.0000,104.0000
1981-06-27 14:30:00 UTC,2444783.104167,29.6650,-93.4789,0037,9.46,-3.26,10.0000,109.0000
1981-06-27 15:00:00 UTC,2444783.125000,29.6650,-93.4789,0037,3.77,-3.28,5.0000,131.0000
1981-06-27 15:30:00 UTC,2444783.145833,29.6650,-93.4789,0037,-2.82,-1.03,3.0000,250.0000
1981-06-27 16:00:00 UTC,2444783.166667,29.6650,-93.4789,0037,-6.49,2.62,7.0000,292.0000
1981-06-27 16:30:00 UTC,2444783.187500,29.6650,-93.4789,0037,-5.66,4.11,7.0000,306.0000
1981-06-27 17:00:00 UTC,2444783.208333,29.6650,-93.4789,0037,-4.41,2.35,5.0000,298.0000
1981-06-27 17:30:00 UTC,2444783.229167,29.6650,-93.4789,0037,-2.15,-5.60,6.0000,201.0000
1981-06-27 18:00:00 UTC,2444783.250000,29.6650,-93.4789,0037,0.00,-15.00,15.0000,180.0000
1981-06-27 18:30:00 UTC,2444783.270833,29.6650,-93.4789,0037,0.30,-17.00,17.0000,179.0000
1981-06-27 19:00:00 UTC,2444783.291667,29.6650,-93.4789,0037,-1.22,-13.95,14.0000,185.0000
1981-06-27 19:30:00 UTC,2444783.312500,29.6650,-93.4789,0037,-2.47,-10.72,11.0000,193.0000
1981-06-27 20:00:00 UTC,2444783.333333,29.6650,-93.4789,0037,-3.58,-10.40,11.0000,199.0000
1981-06-27 20:30:00 UTC,2444783.354167,29.6650,-93.4789,0037,-3.94,-10.27,11.0000,201.0000
1981-06-27 21:00:00 UTC,2444783.375000,29.6650,-93.4789,0037,-6.36,-10.18,12.0000,212.0000
1981-06-27 21:30:00 UTC,2444783.395833,29.6650,-93.4789,0037,-10.40,-9.37,14.0000,228.0000
1981-06-27 22:00:00 UTC,2444783.416667,29.6650,-93.4789,0037,-12.86,-7.73,15.0000,239.0000
1981-06-27 22:30:00 UTC,2444783.437500,29.6650,-93.4789,0037,-14.73,-6.25,16.0000,247.0000
1981-06-27 23:00:00 UTC,2444783.458333,29.6650,-93.4789,0037,-15.38,-4.41,16.0000,254.0000
1981-06-27 23:30:00 UTC,2444783.479167,29.6650,-93.4789,0037,-14.82,-2.35,15.0000,261.0000
1981-06-28 00:00:00 UTC,2444783.500000,29.6650,-93.4789,0037,-16.00,0.28,16.0000,271.0000
1981-06-28 00:30:00 UTC,2444783.520833,29.6650,-93.4789,0037,-16.63,3.53,17.0000,282.0000
1981-06-28 01:00:00 UTC,2444783.541667,29.6650,-93.4789,0037,-16.07,5.53,17.0000,289.0000
1981-06-28 01:30:00 UTC,2444783.562500,29.6650,-93.4789,0037,-15.76,6.37,17.0000,292.0000
1981-06-28 02:00:00 UTC,2444783.583333,29.6650,-93.4789,0037,-14.62,6.51,16.0000,294.0000
1981-06-28 02:30:00 UTC,2444783.604167,29.6650,-93.4789,0037,-14.26,7.26,16.0000,297.0000
1981-06-28 03:00:00 UTC,2444783.625000,29.6650,-93.4789,0037,-14.87,8.24,17.0000,299.0000
1981-06-28 03:30:00 UTC,2444783.645833,29.6650,-93.4789,0037,-15.89,8.45,18.0000,298.0000
1981-06-28 04:00:00 UTC,2444783.666667,29.6650,-93.4789,0037,-14.57,8.76,17.0000,301.0000
1981-06-28 04:30:00 UTC,2444783.687500,29.6650,-93.4789,0037,-13.58,10.23,17.0000,307.0000
1981-06-28 05:00:00 UTC,2444783.708333,29.6650,-93.4789,0037,-13.02,10.93,17.0000,310.0000
1981-06-28 05:30:00 UTC,2444783.729167,29.6650,-93.4789,0037,-11.15,10.04,15.0000,312.0000
1981-06-28 06:00:00 UTC,2444783.750000,29.6650,-93.4789,0037,-10.07,9.73,14.0000,314.0000
1981-06-28 06:30:00 UTC,2444783.770833,29.6650,-93.4789,0037,-8.70,9.66,13.0000,318.0000
1981-06-28 07:00:00 UTC,2444783.791667,29.6650,-93.4789,0037,-6.89,11.02,13.0000,328.0000
1981-06-28 07:30:00 UTC,2444783.812500,29.6650,-93.4789,0037,-3.71,11.41,12.0000,342.0000
1981-06-28 08:00:00 UTC,2444783.833333,29.6650,-93.4789,0037,-0.19,11.00,11.0000,359.0000
1981-06-28 08:30:00 UTC,2444783.854167,29.6650,-93.4789,0037,3.22,10.52,11.0000,17.0000
1981-06-28 09:00:00 UTC,2444783.875000,29.6650,-93.4789,0037,5.88,8.09,10.0000,36.0000
1981-06-28 09:30:00 UTC,2444783.895833,29.6650,-93.4789,0037,7.77,6.29,10.0000,51.0000
1981-06-28 10:00:00 UTC,2444783.916667,29.6650,-93.4789,0037,8.16,3.80,9.0000,65.0000
1981-06-28 10:30:00 UTC,2444783.937500,29.6650,-93.4789,0037,9.74,2.25,10.0000,77.0000
1981-06-28 11:00:00 UTC,2444783.958333,29.6650,-93.4789,0037,10.97,0.77,11.0000,86.0000
1981-06-28 11:30:00 UTC,2444783.979167,29.6650,-93.4789,0037,11.97,-0.84,12.0000,94.0000
1981-06-28 12:00:00 UTC,2444784.000000,29.6650,-93.4789,0037,11.88,-1.67,12.0000,98.0000
1981-06-28 12:30:00 UTC,2444784.020833,29.6650,-93.4789,0037,10.89,-1.53,11.0000,98.0000
1981-06-28 13:00:00 UTC,2444784.041667,29.6650,-93.4789,0037,10.80,-2.10,11.0000,101.0000
1981-06-28 13:30:00 UTC,2444784.062500,29.6650,-93.4789,0037,9.51,-3.09,10.0000,108.0000
1981-06-28 14:00:00 UTC,2444784.083333,29.6650,-93.4789,0037,9.34,-3.58,10.0000,111.0000
1981-06-28 14:30:00 UTC,2444784.104167,29.6650,-93.4789,0037,8.61,-2.63,9.0000,107.0000
1981-06-28 15:00:00 UTC,2444784.125000,29.6650,-93.4789,0037,9.82,-1.91,10.0000,101.0000
1981-06-28 15:30:00 UTC,2444784.145833,29.6650,-93.4789,0037,10.72,-2.47,11.0000,103.0000
1981-06-28 16:00:00 UTC,2444784.166667,29.6650,-93.4789,0037,9.21,-3.91,10.0000,113.0000
1981-06-28 16:30:00 UTC,2444784.187500,29.6650,-93.4789,0037,7.66,-6.43,10.0000,130.0000
1981-06-28 17:00:00 UTC,2444784.208333,29.6650,-93.4789,0037,4.64,-7.71,9.0000,149.0000
1981-06-28 17:30:00 UTC,2444784.229167,29.6650,-93.4789,0037,3.52,-8.28,9.0000,157.0000
1981-06-28 18:00:00 UTC,2444784.250000,29.6650,-93.4789,0037,3.95,-8.09,9.0000,154.0000
1981-06-28 18:30:00 UTC,2444784.270833,29.6650,-93.4789,0037,4.65,-9.97,11.0000,155.0000
1981-06-28 19:00:00 UTC,2444784.291667,29.6650,-93.4789,0037,4.10,-11.28,12.0000,160.0000
1981-06-28 19:30:00 UTC,2444784.312500,29.6650,-93.4789,0037,2.92,-12.67,13.0000,167.0000
1981-06-28 20:00:00 UTC,2444784.333333,29.6650,-93.4789,0037,1.58,-12.90,13.0000,173.0000
1981-06-28 20:30:00 UTC,2444784.354167,29.6650,-93.4789,0037,0.68,-12.98,13.0000,177.0000
1981-06-28 21:00:00 UTC,2444784.375000,29.6650,-93.4789,0037,0.00,-14.00,14.0000,180.0000
1981-06-28 21:30:00 UTC,2444784.395833,29.6650,-93.4789,0037,0.00,-15.00,15.0000,180.0000
1981-06-28 22:00:00 UTC,2444784.416667,29.6650,-93.4789,0037,-0.28,-16.00,16.0000,181.0000
1981-06-28 22:30:00 UTC,2444784.437500,29.6650,-93.4789,0037,-0.28,-16.00,16.0000,181.0000
1981-06-28 23:00:00 UTC,2444784.458333,29.6650,-93.4789,0037,0.89,-16.98,17.0000,177.0000
1981-06-28 23:30:00 UTC,2444784.479167,29.6650,-93.4789,0037,2.66,-16.79,17.0000,171.0000
1981-06-29 00:00:00 UTC,2444784.500000,29.6650,-93.4789,0037,2.60,-14.77,15.0000,170.0000
1981-06-29 00:30:00 UTC,2444784.520833,29.6650,-93.4789,0037,-1.13,-12.95,13.0000,185.0000
1981-06-29 01:00:00 UTC,2444784.541667,29.6650,-93.4789,0037,-6.54,-10.06,12.0000,213.0000
1981-06-29 01:30:00 UTC,2444784.562500,29.6650,-93.4789,0037,-9.62,-5.33,11.0000,241.0000
1981-06-29 02:00:00 UTC,2444784.583333,29.6650,-93.4789,0037,-10.63,-2.85,11.0000,255.0000
1981-06-29 02:30:00 UTC,2444784.604167,29.6650,-93.4789,0037,-8.83,-1.72,9.0000,259.0000
1981-06-29 03:00:00 UTC,2444784.625000,29.6650,-93.4789,0037,-7.99,-0.42,8.0000,267.0000
1981-06-29 03:30:00 UTC,2444784.645833,29.6650,-93.4789,0037,-7.96,0.84,8.0000,276.0000
1981-06-29 04:00:00 UTC,2444784.666667,29.6650,-93.4789,0037,-7.79,1.80,8.0000,283.0000
1981-06-29 04:30:00 UTC,2444784.687500,29.6650,-93.4789,0037,-8.40,3.23,9.0000,291.0000
1981-06-29 05:00:00 UTC,2444784.708333,29.6650,-93.4789,0037,-8.16,3.80,9.0000,295.0000
1981-06-29 05:30:00 UTC,2444784.729167,29.6650,-93.4789,0037,-8.16,3.80,9.0000,295.0000
1981-06-29 06:00:00 UTC,2444784.750000,29.6650,-93.4789,0037,-7.06,3.76,8.0000,298.0000
1981-06-29 06:30:00 UTC,2444784.770833,29.6650,-93.4789,0037,-5.73,4.02,7.0000,305.0000
1981-06-29 07:00:00 UTC,2444784.791667,29.6650,-93.4789,0037,-3.66,3.41,5.0000,313.0000
1981-06-29 07:30:00 UTC,2444784.812500,29.6650,-93.4789,0037,-1.72,2.46,3.0000,325.0000
1981-06-29 08:00:00 UTC,2444784.833333,29.6650,-93.4789,0037,0.90,0.44,1.0000,64.0000
1981-06-29 08:30:00 UTC,2444784.854167,29.6650,-93.4789,0037,1.76,-2.43,3.0000,144.0000
1981-06-29 09:00:00 UTC,2444784.875000,29.6650,-93.4789,0037,0.95,-4.91,5.0000,169.0000
1981-06-29 09:30:00 UTC,2444784.895833,29.6650,-93.4789,0037,0.73,-5.96,6.0000,173.0000
1981-06-29 10:00:00 UTC,2444784.916667,29.6650,-93.4789,0037,1.25,-5.87,6.0000,168.0000
1981-06-29 10:30:00 UTC,2444784.937500,29.6650,-93.4789,0037,2.34,-5.52,6.0000,157.0000
1981-06-29 11:00:00 UTC,2444784.958333,29.6650,-93.4789,0037,3.36,-4.97,6.0000,146.0000
1981-06-29 11:30:00 UTC,2444784.979167,29.6650,-93.4789,0037,4.17,-4.32,6.0000,136.0000
1981-06-29 12:00:00 UTC,2444785.000000,29.6650,-93.4789,0037,5.03,-3.27,6.0000,123.0000
1981-06-29 12:30:00 UTC,2444785.020833,29.6650,-93.4789,0037,4.76,-1.55,5.0000,108.0000
1981-06-29 13:00:00 UTC,2444785.041667,29.6650,-93.4789,0037,4.00,0.14,4.0000,88.0000
1981-06-29 13:30:00 UTC,2444785.062500,29.6650,-93.4789,0037,4.67,1.79,5.0000,69.0000
1981-06-29 14:00:00 UTC,2444785.083333,29.6650,-93.4789,0037,8.16,3.80,9.0000,65.0000
1981-06-29 14:30:00 UTC,2444785.104167,29.6650,-93.4789,0037,9.27,3.75,10.0000,68.0000
1981-06-29 15:00:00 UTC,2444785.125000,29.6650,-93.4789,0037,9.66,2.59,10.0000,75.0000
1981-06-29 15:30:00 UTC,2444785.145833,29.6650,-93.4789,0037,8.83,1.72,9.0000,79.0000
1981-06-29 16:00:00 UTC,2444785.166667,29.6650,-93.4789,0037,8.86,1.56,9.0000,80.0000
1981-06-29 16:30:00 UTC,2444785.187500,29.6650,-93.4789,0037,8.98,0.63,9.0000,86.0000
1981-06-29 17:00:00 UTC,2444785.208333,29.6650,-93.4789,0037,9.00,0.00,9.0000,90.0000
1981-06-29 17:30:00 UTC,2444785.229167,29.6650,-93.4789,0037,8.98,-0.63,9.0000,94.0000
1981-06-29 18:00:00 UTC,2444785.250000,29.6650,-93.4789,0037,8.77,-2.02,9.0000,103.0000
1981-06-29 18:30:00 UTC,2444785.270833,29.6650,-93.4789,0037,7.87,-4.36,9.0000,119.0000
1981-06-29 19:00:00 UTC,2444785.291667,29.6650,-93.4789,0037,7.31,-6.82,10.0000,133.0000
1981-06-29 19:30:00 UTC,2444785.312500,29.6650,-93.4789,0037,6.95,-7.19,10.0000,136.0000
1981-06-29 20:00:00 UTC,2444785.333333,29.6650,-93.4789,0037,8.19,-5.74,10.0000,125.0000
1981-06-29 20:30:00 UTC,2444785.354167,29.6650,-93.4789,0037,8.22,-3.66,9.0000,114.0000
1981-06-29 21:00:00 UTC,2444785.375000,29.6650,-93.4789,0037,7.36,-3.13,8.0000,113.0000
1981-06-29 21:30:00 UTC,2444785.395833,29.6650,-93.4789,0037,6.86,-4.12,8.0000,121.0000
1981-06-29 22:00:00 UTC,2444785.416667,29.6650,-93.4789,0037,7.19,-5.42,9.0000,127.0000
1981-06-29 22:30:00 UTC,2444785.437500,29.6650,-93.4789,0037,4.93,-6.30,8.0000,142.0000
1981-06-29 23:00:00 UTC,2444785.458333,29.6650,-93.4789,0037,2.05,-6.69,7.0000,163.0000
1981-06-29 23:30:00 UTC,2444785.479167,29.6650,-93.4789,0037,-0.97,-3.88,4.0000,194.0000
1981-06-30 00:00:00 UTC,2444785.500000,29.6650,-93.4789,0037,-2.60,-1.50,3.0000,240.0000
1981-06-30 00:30:00 UTC,2444785.520833,29.6650,-93.4789,0037,-2.49,-1.68,3.0000,236.0000
1981-06-30 01:00:00 UTC,2444785.541667,29.6650,-93.4789,0037,-4.95,0.70,5.0000,278.0000
1981-06-30 01:30:00 UTC,2444785.562500,29.6650,-93.4789,0037,-10.18,6.36,12.0000,302.0000
1981-06-30 02:00:00 UTC,2444785.583333,29.6650,-93.4789,0037,-15.93,10.35,19.0000,303.0000
1981-06-30 02:30:00 UTC,2444785.604167,29.6650,-93.4789,0037,-18.45,11.98,22.0000,303.0000
1981-06-30 03:00:00 UTC,2444785.625000,29.6650,-93.4789,0037,-18.84,13.19,23.0000,305.0000
1981-06-30 03:30:00 UTC,2444785.645833,29.6650,-93.4789,0037,-17.57,13.24,22.0000,307.0000